Location: Unspecified
(0.0000°N, 0.0000°E)
Time: 13:36:14
(UTC+00:00)

Vanguard 1 Rocket - Visible Passes

Search period start: 18 April 2014 00:00
Search period end: 28 April 2014 00:00
Orbit: 650 x 4231 km, 34.3° (Epoch: 14 April)

Date Brightness Start Highest point End Pass type
(mag) Time Alt. Az. Time Alt. Az. Time Alt. Az.
18 Apr 10.0 19:33:35 10° SW 19:57:27 49° SSE 20:02:27 42° ESE visible
18 Apr 10.5 22:08:08 10° WSW 22:19:50 38° WSW 22:19:50 38° WSW visible
19 Apr 10.6 18:18:45 10° SW 18:41:56 37° SSE 18:56:19 16° E visible
19 Apr 9.7 20:52:07 10° SW 21:13:43 74° SSW 21:13:43 74° SSW visible
19 Apr 11.4 23:29:54 10° W 23:31:07 12° W 23:31:07 12° W visible
20 Apr 9.8 19:36:48 10° SW 20:01:49 60° SSE 20:07:42 46° E visible
20 Apr 10.5 22:12:14 10° WSW 22:25:07 39° W 22:25:07 39° W visible
21 Apr 10.6 18:22:08 10° SW 18:46:39 45° SSE 19:01:49 16° E visible
21 Apr 9.6 20:55:39 10° SW 21:19:14 83° WNW 21:19:14 83° WNW visible
21 Apr 11.4 23:35:34 10° W 23:36:39 12° W 23:36:39 12° W visible
22 Apr 9.9 19:40:05 10° SW 20:05:54 72° SE 20:13:28 44° ENE visible
22 Apr 10.5 22:16:46 10° WSW 22:30:54 38° WNW 22:30:54 38° WNW visible
23 Apr 10.5 18:25:26 10° SW 18:51:03 54° SSE 19:07:49 13° ENE visible
23 Apr 9.7 20:59:28 10° WSW 21:23:11 69° NW 21:25:15 65° N visible
23 Apr 11.3 23:42:03 10° WNW 23:42:42 11° WNW 23:42:42 11° WNW visible
24 Apr 10.0 19:43:31 10° SW 20:09:45 86° SE 20:19:44 34° NE visible
24 Apr 10.5 22:21:49 10° W 22:37:11 34° NW 22:37:11 34° NW visible
25 Apr 10.4 18:28:46 10° SW 18:55:08 65° SE 19:13:31 10° ENE visible
25 Apr 10.0 21:03:38 10° WSW 21:26:45 56° NW 21:31:46 45° N visible
26 Apr 10.2 19:47:10 10° SW 20:13:24 80° NW 20:26:27 21° NE visible
26 Apr 10.6 22:27:31 10° W 22:43:00 27° NW 22:43:55 27° NW visible
27 Apr 10.4 18:32:10 10° SW 18:58:59 77° SE 19:17:48 10° ENE visible
27 Apr 10.4 21:08:14 10° WSW 21:30:19 45° NW 21:38:40 27° NNE visible
